Weather History for Concordia, KS

Change the Weather History Date:

Tuesday, January 14, 2014

  Actual Average Record
Temperature  
Mean Temperature 37 °F 28 °F  
Max Temperature 49 °F 38 °F 62 °F (1990)
Min Temperature 25 °F 19 °F -18 °F (1888)
Degree Days  
Heating Degree Days 28 37  
Month to date heating degree days 559 518  
Since 1 July heating degree days 2786 2695  
Cooling Degree Days 0 0  
Month to date cooling degree days 0 0  
Year to date cooling degree days 0 0  
Moisture  
Dew Point 18 °F    
Average Humidity 42    
Maximum Humidity 60    
Minimum Humidity 24    
Precipitation  
Precipitation T in 0.02 in 0.97 in (1960)
Month to date precipitation 0.21 0.21  
Year to date precipitation 0.21 0.21  
Snow  
Snow 0.00 in 0.10 in 3.30 in (1960)
Month to date snowfall 2.0 2.3  
Year to date snowfall 2.0 2.3  
Since 1 July snowfall 8.3 8.8  
Snow Depth 0.00 in    
Sea Level Pressure  
Sea Level Pressure 30.13 in    
Wind  
Wind Speed 17 mph (NW)    
Max Wind Speed 32 mph    
Max Gust Speed 41 mph    
Visibility 10 miles    
Events      
T = Trace of Precipitation, MM = Missing Value Source: NWS Daily Summary

Daily Weather History Graph

Daily Weather History Graph

Search for Another Location

Airport:

Trip Planner

Search our weather history database for the weather conditions in past years. The results will help you decide how hot, cold, wet, or windy it might be!

Date:

Astronomy

Jan. 14, 2014 Rise Set
Actual Time 7:49 AM CST 5:30 PM CST
Civil Twilight 7:20 AM CST 5:59 PM CST
Nautical Twilight 6:46 AM CST 6:32 PM CST
Astronomical Twilight 6:14 AM CST 7:05 PM CST
Moon 4:36 PM CST (1/14) 6:25 AM CST (1/14)
Length of Visible Light 10h 39m
Length of Day
9h 40m
Waxing Gibbous, 98% of the Moon is Illuminated
Jan 14
Waxing Gibbous
Jan 15
Full
Jan 23
Last Quarter
Jan 30
New
Feb 6
First Quarter

Hourly Weather History & Observations

Time (CST) Temp. Windchill Dew Point Humidity Pressure Visibility Wind Dir Wind Speed Gust Speed Precip Events Conditions
12:55 AM 39.9 °F 33.9 °F 24.1 °F 53% 29.81 in 10.0 mi West 9.2 mph - N/A   Scattered Clouds
1:55 AM 42.1 °F 35.7 °F 28.0 °F 58% 29.81 in 10.0 mi West 11.5 mph - N/A   Scattered Clouds
2:55 AM 46.0 °F 41.4 °F 32.0 °F 58% 29.82 in 10.0 mi NW 9.2 mph - N/A   Scattered Clouds
3:55 AM 46.9 °F - 33.1 °F 59% 29.88 in 10.0 mi NW 24.2 mph 34.5 mph 0.00 in   Mostly Cloudy
4:55 AM 45.0 °F 36.9 °F 28.0 °F 52% 29.91 in 10.0 mi NNW 20.7 mph 29.9 mph N/A   Mostly Cloudy
5:55 AM 41.0 °F 31.9 °F 27.0 °F 57% 29.96 in 10.0 mi NNW 19.6 mph 27.6 mph N/A   Clear
6:55 AM 37.9 °F 27.6 °F 25.0 °F 60% 30.02 in 10.0 mi NNW 20.7 mph 34.5 mph N/A   Clear
7:55 AM 37.0 °F 27.4 °F 25.0 °F 62% 30.08 in 10.0 mi NNW 17.3 mph - N/A   Clear
8:55 AM 37.0 °F 27.7 °F 23.0 °F 57% 30.13 in 10.0 mi NNW 16.1 mph - N/A   Clear
9:55 AM 39.0 °F 30.6 °F 21.0 °F 49% 30.18 in 10.0 mi NNW 15.0 mph 26.5 mph N/A   Clear
10:55 AM 39.9 °F 30.5 °F 14.0 °F 35% 30.20 in 10.0 mi NNW 19.6 mph 35.7 mph N/A   Clear
11:55 AM 41.0 °F 30.7 °F 10.0 °F 28% 30.19 in 10.0 mi NNW 25.3 mph 32.2 mph N/A   Clear
12:55 PM 43.0 °F 32.9 °F 9.0 °F 25% 30.19 in 10.0 mi NNW 27.6 mph 35.7 mph N/A   Clear
1:55 PM 44.1 °F 35.4 °F 10.9 °F 26% 30.18 in 10.0 mi NNW 21.9 mph 34.5 mph N/A   Clear
2:55 PM 44.1 °F 35.0 °F 10.9 °F 26% 30.19 in 10.0 mi NNW 24.2 mph 35.7 mph N/A   Clear
3:55 PM 43.0 °F 33.3 °F 12.0 °F 28% 30.20 in 10.0 mi NNW 25.3 mph 33.4 mph N/A   Clear
4:55 PM 41.0 °F 31.1 °F 12.0 °F 31% 30.22 in 10.0 mi NW 23.0 mph 28.8 mph N/A   Clear
5:55 PM 37.0 °F 28.9 °F 9.0 °F 31% 30.25 in 10.0 mi NW 12.7 mph - N/A   Clear
6:55 PM 35.1 °F 26.4 °F 12.9 °F 40% 30.27 in 10.0 mi NW 12.7 mph - N/A   Clear
7:55 PM 34.0 °F 24.6 °F 14.0 °F 44% 30.29 in 10.0 mi NW 13.8 mph - N/A   Clear
8:55 PM 30.9 °F 22.2 °F 15.1 °F 52% 30.30 in 10.0 mi NNW 10.4 mph - N/A   Partly Cloudy
9:55 PM 30.9 °F 21.2 °F 15.1 °F 52% 30.31 in 10.0 mi NNW 12.7 mph - N/A   Mostly Cloudy
10:55 PM 30.9 °F 22.2 °F 15.1 °F 52% 30.32 in 10.0 mi NW 10.4 mph - N/A   Overcast
11:55 PM 25.0 °F 17.1 °F 15.1 °F 66% 30.31 in 10.0 mi West 6.9 mph - N/A   Partly Cloudy